Regional Weather Roundup
Issued by NWS New Orleans/Baton Rouge, LA

Home | Current Version | Previous Version | Text Only | Print | Product List | Glossary Off
Versions: 1 2 3 4 5 6 7 8 9 10 11 12 13 14 15 16 17 18 19 20 21 22 23 24 25 26 27 28 29 30 31 32 33 34 35 36 37 38 39 40 41 42 43 44 45 46 47 48 49 50

917
ASUS44 KLIX 290511
RWRLIX
NEW ORLEANS REGIONAL WEATHER ROUNDUP
NATIONAL WEATHER SERVICE NEW ORLEANS LA
1200 AM CDT SUN MAR 29 2015

NOTE: "FAIR" INDICATES FEW OR NO CLOUDS BELOW 12,000 FEET WITH NO
      SIGNIFICANT WEATHER AND/OR OBSTRUCTIONS TO VISIBILITY.
      SKY/WX - SKY CONDITION AND SIGNIFICANT WEATHER.
      TMP - AIR TEMPERATURE.     DP    - DEWPOINT TEMPERATURE.
      RH  - RELATIVE HUMIDITY.   PRES  - PRESSURE.
      HI  - HEAT INDEX.          WCI   - WIND CHILL INDEX.

*  THESE STATIONS ARE NOT NWS OR FAA STATIONS AND ARE NOT UNDER
   NWS QUALITY CONTROL.

LAZ038-040-048-061>063-065>067-069-290600-
SOUTHEAST LOUISIANA

CITY           SKY/WX    TMP DP  RH WIND       PRES   REMARKS
N.O. AUDUBON     N/A     60  54  80 MISG        N/A
N.O. INTL ARPT CLEAR     58  49  72 SE9       30.23S
N.O. LAKEFRONT CLEAR     60  51  72 SE8       30.24S
SLIDELL        CLEAR     51  48  89 N3        30.24S
BATON ROUGE    CLEAR     56  50  80 NE3       30.21R
BOOTHVILLE     CLEAR     57  51  80 E7        30.25S
BELLE CHASSE   CLEAR     57  50  77 SE6       30.23S
BOGALUSA*        N/A     54  42  63 E6        30.27S
GALLIANO*      CLEAR     62  56  82 CALM      30.23S
NEW ROADS*       N/A     57  51  78 SE3       30.21S
GONZALES*        N/A     57  53  86 CALM      30.22R
HAMMOND*       CLEAR     55  48  76 CALM      30.25S
HOUMA*         CLEAR     54  53  95 SE6       30.22S
PORT FOURCHON* CLEAR     64  57  77 SE10      30.25S

$$

MSZ070-080>082-290600-
SOUTHERN MISSISSIPPI

CITY           SKY/WX    TMP DP  RH WIND       PRES   REMARKS
MCCOMB         PTCLDY    51  38  60 E6        30.24S
GULFPORT       CLEAR     51  45  79 CALM      30.26S
BILOXI         CLEAR     53  44  73 E9        30.26S
PASCAGOULA     CLEAR     49  39  68 NE5       30.28R

$$

COASTAL OBSERVATIONS
LAKE AND NEARSHORE STATIONS

STATION/POSITION TIME  TEMP    WIND        PRES    WAVE
                       AIR SEA DIR/SP/G            HT/PER
                 (UTC) (F)     (DEG/KT/KT) (MB)    (FT/S)
PASCAGOULA       0412   54      60/ 10/ 13 1024.6
WAVELAND YACHT   0400   62 65  170/  9/ 11 1024.1
GRAND ISLE       0412   63 67  130/  8/ 12 1023.4
SOUTHWEST PASS   0412   62 53  120/ 12/ 13 1024.3
NEW CANAL        0412   58     140/  2/  6 1024.2
SHELL BEACH      0400   59 68  140/  7/  9 1024.1

OFFSHORE STATIONS

STATION/POSITION TIME  TEMP    WIND        PRES    WAVE
                       AIR SEA DIR/SP/G            HT/PER
                 (UTC) (F)     (DEG/KT/KT) (MB)    (FT/S)
64 S DAUPHIN ISL 0450   62 71  150/  8/ 10 1025.1    1/ 5

$$




USA.gov is the U.S. government's official web portal to all federal, state and local government web resources and services.